Flag for U.S.A. Weather past 2 weeks in Hereford, Texas, U.S.A.

Now
12 °F

Mostly cloudy.


Feels Like: -4 °F
Forecast: 9 / 18 °F
Wind: 16 mph from Southeast

Location: Clovis Municipal

Current Time: Feb 27, 2015 at 11:43:41 AM

Latest Report: Feb 27, 2015 at 11:15 AM


Visibility: 7 mi

Pressure: 30.22 "Hg

Humidity: 79%

Dew point: 7 °F

Location of HerefordLocation

Historic Weather in Hereford — Graph

°F

Hereford temperature yesterday

Maximum temperature yesterday: 37 °F (at 12:15 AM)
Minimum temperature yesterday: 19 °F (at 11:15 PM)
Average temperature yesterday: 24 °F

Past Weeks' High & Low Weather Summary

 TemperatureHumidityPressure
High73 °F (Feb 20, 2:55 PM)93% (Feb 15, 5:55 AM)30.47 "Hg (Feb 15, 5:55 AM)
Low10 °F (Feb 23, 4:15 AM)13% (Feb 19, 4:35 PM)29.68 "Hg (Feb 20, 5:15 PM)
Average36 °F63%30.11 "Hg
* Reported Feb 12 10:15 AM — Feb 27 10:35 AM, Hereford, Weather by CustomWeather, © 2015

Note: Actual official high and low records may vary slightly from our data, if they occured in-between our weather recording intervals... More about our weather records

Advertising

Hereford weather history for previous 24 hours

 ConditionsComfort  
Time TempWeatherWind HumidityBarometerVisibility
10:35 AM
Fri, Feb 27
12 °FCloudy.17 mph79%30.22 "Hg8 mi
10:15 AM12 °FMore clouds than sun.14 mph85%30.24 "Hg7 mi
9:55 AM12 °FOvercast.15 mph79%30.23 "Hg7 mi
9:35 AM12 °FOvercast.15 mph85%30.23 "Hg10 mi
9:15 AM12 °FLow clouds.17 mph85%30.22 "Hg10 mi
8:55 AM12 °FMostly cloudy.16 mph85%30.22 "Hg10 mi
8:35 AM10 °FMore clouds than sun.17 mph85%30.21 "Hg10 mi
8:15 AM12 °FMostly cloudy.21 mph73%30.20 "Hg4 mi
7:55 AM12 °FMostly cloudy.17 mph85%30.20 "Hg3 mi
7:35 AM12 °FMostly cloudy.16 mph85%30.20 "Hg4 mi
7:15 AM12 °FOvercast.17 mph85%30.19 "Hg9 mi
6:55 AM12 °FMostly cloudy.15 mph92%30.18 "Hg10 mi
6:35 AM12 °FOvercast.15 mph85%30.19 "Hg5 mi
6:15 AM12 °FMostly cloudy.16 mph92%30.19 "Hg5 mi
5:55 AM12 °FLow clouds.15 mph85%30.19 "Hg1 mi
5:35 AM14 °FMostly cloudy.13 mph85%30.20 "Hg2 mi
5:15 AM14 °FMostly cloudy.13 mph85%30.19 "Hg3 mi
4:55 AM14 °FLow clouds.10 mph85%30.18 "Hg1 mi
4:35 AM14 °FOvercast.16 mph85%30.16 "Hg1 mi
4:15 AM14 °FOvercast.14 mph85%30.17 "Hg1 mi
3:55 AM16 °FOvercast.15 mph86%30.18 "Hg1 mi
3:35 AM16 °FOvercast.17 mph86%30.18 "Hg2 mi
3:15 AM16 °FOvercast.14 mph86%30.16 "Hg2 mi
2:55 AM16 °FMostly cloudy.17 mph86%30.16 "Hg2 mi
2:35 AM16 °FOvercast.13 mph86%30.18 "Hg3 mi
2:15 AM16 °FMostly cloudy.15 mph86%30.19 "Hg3 mi
1:55 AM16 °FLow clouds.16 mph86%30.20 "Hg1 mi
1:35 AM18 °FLow clouds.12 mph79%30.20 "Hg2 mi
1:15 AM18 °FMostly cloudy.9 mph79%30.22 "Hg1 mi
12:55 AM18 °FMostly cloudy.14 mph79%30.22 "Hg4 mi
12:35 AM19 °FMostly cloudy.15 mph73%30.20 "Hg5 mi
12:15 AM19 °FMostly cloudy.16 mph79%30.19 "Hg10 mi
11:55 PM
Thu, Feb 26
19 °FMostly cloudy.17 mph79%30.18 "Hg10 mi
11:35 PM19 °FOvercast.18 mph73%30.19 "Hg10 mi
11:15 PM19 °FOvercast.17 mph79%30.20 "Hg10 mi
10:55 PM21 °FOvercast.12 mph80%30.21 "Hg10 mi
10:35 PM21 °FOvercast.13 mph80%30.21 "Hg10 mi
10:15 PM21 °FOvercast.13 mph80%30.22 "Hg10 mi
9:15 PM21 °FOvercast.9 mph80%30.22 "Hg10 mi
8:55 PM21 °FOvercast.13 mph86%30.22 "Hg10 mi
8:35 PM21 °FOvercast.12 mph86%30.21 "Hg10 mi
8:15 PM21 °FOvercast.12 mph86%30.21 "Hg10 mi
7:55 PM21 °FMostly cloudy.13 mph86%30.21 "Hg10 mi
7:35 PM21 °FOvercast.13 mph86%30.21 "Hg10 mi
7:15 PM21 °FOvercast.12 mph86%30.21 "Hg10 mi
6:55 PM21 °FOvercast.14 mph86%30.21 "Hg10 mi
6:35 PM21 °FOvercast.13 mph86%30.20 "Hg10 mi
6:15 PM21 °FOvercast.14 mph86%30.20 "Hg10 mi
5:55 PM21 °FOvercast.14 mph86%30.19 "Hg10 mi
5:35 PM21 °FOvercast.13 mph86%30.19 "Hg10 mi
5:15 PM21 °FOvercast.13 mph86%30.20 "Hg10 mi
4:55 PM21 °FOvercast.13 mph86%30.19 "Hg10 mi
4:35 PM23 °FOvercast.13 mph80%30.19 "Hg10 mi
4:15 PM23 °FOvercast.13 mph80%30.20 "Hg10 mi
3:55 PM23 °FOvercast.14 mph80%30.20 "Hg10 mi
3:35 PM23 °FOvercast.13 mph80%30.21 "Hg10 mi
3:15 PM25 °FOvercast.13 mph74%30.20 "Hg10 mi
2:55 PM25 °FOvercast.14 mph74%30.20 "Hg9 mi
2:35 PM23 °FOvercast.15 mph80%30.21 "Hg10 mi
2:15 PM23 °FMostly cloudy.15 mph80%30.21 "Hg10 mi
1:55 PM23 °FOvercast.12 mph80%30.23 "Hg10 mi
1:35 PM23 °FMostly cloudy.14 mph80%30.23 "Hg10 mi
1:15 PM23 °FMostly cloudy.14 mph80%30.24 "Hg10 mi
12:55 PM23 °FMostly cloudy.15 mph80%30.24 "Hg10 mi
12:35 PM21 °FMostly cloudy.16 mph86%30.24 "Hg10 mi
12:15 PM21 °FMostly cloudy.17 mph80%30.24 "Hg10 mi
11:55 AM21 °FMostly cloudy.18 mph86%30.25 "Hg10 mi
11:35 AM21 °FMostly cloudy.15 mph86%30.25 "Hg7 mi
11:15 AM21 °FOvercast.15 mph80%30.26 "Hg8 mi
Weather by CustomWeather, © 2015

See weather overviewHow to use our weather pages